Location: Kinloch
(38.7406°N, 90.3254°W)
Time: 14:34:38
(UTC+00:00)

Cosmos 2173 Rocket - Pass Details

Date: 13 February 2026
Orbit: 943 x 1000 km, 83.0° (Epoch: 8 March)

Event Time Altitude Azimuth Distance (km) Brightness Sun altitude
Rises 12:09:12 0° 184° (S) 3,696 7.1 -9.5°
Reaches altitude 10° 12:11:43 10° 185° (S) 2,755 6.4 -9.0°
Maximum altitude 12:18:04 89° 104° (ESE) 1,005 4.1 -7.8°
Drops below altitude 10° 12:24:28 10° 7° (N) 2,774 6.3 -6.5°
Sets 12:27:00 0° 8° (N) 3,724 7.0 -6.0°
